Meteo pe oră la Al Metlaoui

Astăzi, 23 Ianuarie, Sâmbătă

Timp Temperatura Precipitaţii Vânt Presiune Umiditate
00:00 +14°C° 0 mm 2 m/s 753 mmHg 50%
01:00 +14°C° 0 mm 2 m/s 753 mmHg 49%
02:00 +13°C° 0 mm 3 m/s 753 mmHg 52%
03:00 +13°C° 0 mm 4 m/s 753 mmHg 55%
04:00 +13°C° 0 mm 6 m/s 753 mmHg 58%
05:00 +12°C° 0 mm 5 m/s 753 mmHg 61%
06:00 +11°C° 0 mm 4 m/s 754 mmHg 65%
07:00 +11°C° 0 mm 4 m/s 754 mmHg 69%
08:00 +12°C° 0 mm 4 m/s 754 mmHg 64%
09:00 +12°C° 0 mm 4 m/s 755 mmHg 58%
10:00 +13°C° 0 mm 4 m/s 755 mmHg 53%
11:00 +14°C° 0 mm 4 m/s 755 mmHg 49%
12:00 +15°C° 0 mm 4 m/s 755 mmHg 45%
13:00 +16°C° 0 mm 5 m/s 754 mmHg 42%
14:00 +16°C° 0 mm 6 m/s 754 mmHg 39%
15:00 +17°C° 0 mm 6 m/s 754 mmHg 37%
16:00 +17°C° 0 mm 7 m/s 754 mmHg 34%
17:00 +16°C° 0 mm 6 m/s 754 mmHg 38%
18:00 +15°C° 0 mm 5 m/s 754 mmHg 43%
19:00 +14°C° 0 mm 5 m/s 755 mmHg 47%
20:00 +13°C° 0 mm 4 m/s 755 mmHg 49%
21:00 +13°C° 0 mm 3 m/s 755 mmHg 52%
22:00 +13°C° 0 mm 2 m/s 755 mmHg 54%
23:00 +12°C° 0 mm 3 m/s 755 mmHg 55%

Mâine, 24 Ianuarie, Duminică

Timp Temperatura Precipitaţii Vânt Presiune Umiditate
00:00 +11°C° 0 mm 3 m/s 755 mmHg 56%
01:00 +11°C° 0 mm 3 m/s 755 mmHg 57%
02:00 +11°C° 0 mm 3 m/s 755 mmHg 59%
03:00 +10°C° 0 mm 3 m/s 754 mmHg 61%
04:00 +10°C° 0 mm 4 m/s 754 mmHg 63%
05:00 +10°C° 0 mm 4 m/s 753 mmHg 66%
06:00 +10°C° 0 mm 4 m/s 753 mmHg 68%
07:00 +8°C° 0 mm 5 m/s 753 mmHg 70%
08:00 +9°C° 0 mm 5 m/s 753 mmHg 66%
09:00 +10°C° 0 mm 5 m/s 753 mmHg 61%
10:00 +11°C° 0 mm 6 m/s 753 mmHg 57%
11:00 +14°C° 0 mm 6 m/s 753 mmHg 51%
12:00 +15°C° 0 mm 7 m/s 752 mmHg 45%
13:00 +16°C° 0 mm 7 m/s 752 mmHg 39%
14:00 +17°C° 0 mm 8 m/s 752 mmHg 39%
15:00 +17°C° 0 mm 8 m/s 751 mmHg 39%
16:00 +18°C° 0 mm 8 m/s 751 mmHg 39%
17:00 +17°C° 0 mm 7 m/s 752 mmHg 43%
18:00 +16°C° 0 mm 5 m/s 752 mmHg 47%
19:00 +16°C° 0 mm 3 m/s 753 mmHg 52%
20:00 +16°C° 0 mm 3 m/s 753 mmHg 54%
21:00 +15°C° 0 mm 2 m/s 753 mmHg 57%
22:00 +15°C° 0 mm 2 m/s 754 mmHg 59%
23:00 +14°C° 0 mm 2 m/s 754 mmHg 60%

Poimâine, 25 Ianuarie, Luni

Timp Temperatura Precipitaţii Vânt Presiune Umiditate
00:00 +14°C° 0 mm 2 m/s 754 mmHg 61%
01:00 +14°C° 0 mm 1 m/s 754 mmHg 62%
02:00 +13°C° 0 mm 2 m/s 754 mmHg 62%
03:00 +13°C° 0 mm 2 m/s 754 mmHg 62%
04:00 +13°C° 0 mm 2 m/s 754 mmHg 61%
05:00 +13°C° 0 mm 2 m/s 754 mmHg 62%
06:00 +13°C° 0 mm 2 m/s 754 mmHg 62%
07:00 +13°C° 0 mm 2 m/s 755 mmHg 62%
08:00 +13°C° 0 mm 2 m/s 755 mmHg 60%
09:00 +14°C° 0 mm 2 m/s 755 mmHg 58%
10:00 +15°C° 0 mm 2 m/s 756 mmHg 55%
11:00 +16°C° 0 mm 2 m/s 756 mmHg 54%
12:00 +18°C° 0 mm 1 m/s 755 mmHg 52%
13:00 +18°C° 0 mm 1 m/s 755 mmHg 50%
14:00 +18°C° 0 mm 2 m/s 755 mmHg 49%
15:00 +18°C° 0 mm 2 m/s 755 mmHg 48%
16:00 +18°C° 0 mm 2 m/s 755 mmHg 48%
17:00 +18°C° 0 mm 1 m/s 755 mmHg 51%
18:00 +18°C° 0 mm 1 m/s 755 mmHg 54%
19:00 +15°C° 0 mm 0 m/s 756 mmHg 57%
20:00 +16°C° 0 mm 1 m/s 756 mmHg 57%
21:00 +16°C° 0 mm 2 m/s 757 mmHg 56%
22:00 +14°C° 0 mm 3 m/s 757 mmHg 56%
23:00 +14°C° 0 mm 3 m/s 757 mmHg 57%

26 Ianuarie, Marţi

Timp Temperatura Precipitaţii Vânt Presiune Umiditate
00:00 +13°C° 0 mm 4 m/s 758 mmHg 59%
01:00 +13°C° 0 mm 4 m/s 758 mmHg 60%
02:00 +12°C° 0 mm 4 m/s 758 mmHg 63%
03:00 +12°C° 0 mm 4 m/s 758 mmHg 65%
04:00 +11°C° 0 mm 3 m/s 758 mmHg 68%
05:00 +11°C° 0 mm 3 m/s 758 mmHg 68%
06:00 +11°C° 0 mm 3 m/s 758 mmHg 69%
07:00 +12°C° 0 mm 2 m/s 759 mmHg 69%
08:00 +12°C° 0 mm 2 m/s 759 mmHg 64%
09:00 +12°C° 0 mm 3 m/s 760 mmHg 59%
10:00 +13°C° 0 mm 3 m/s 760 mmHg 54%
11:00 +14°C° 0 mm 3 m/s 760 mmHg 49%
12:00 +16°C° 0 mm 2 m/s 760 mmHg 43%
13:00 +18°C° 0 mm 2 m/s 760 mmHg 38%
14:00 +18°C° 0 mm 3 m/s 760 mmHg 38%
15:00 +18°C° 0 mm 4 m/s 760 mmHg 39%
16:00 +18°C° 0 mm 4 m/s 759 mmHg 40%
17:00 +17°C° 0 mm 4 m/s 760 mmHg 44%
18:00 +17°C° 0 mm 4 m/s 760 mmHg 48%
19:00 +15°C° 0 mm 4 m/s 760 mmHg 52%
20:00 +14°C° 0 mm 4 m/s 760 mmHg 54%
21:00 +14°C° 0 mm 3 m/s 761 mmHg 57%
22:00 +14°C° 0 mm 2 m/s 761 mmHg 59%
23:00 +14°C° 0 mm 2 m/s 761 mmHg 61%

27 Ianuarie, Miercuri

Timp Temperatura Precipitaţii Vânt Presiune Umiditate
00:00 +13°C° 0 mm 2 m/s 761 mmHg 63%
01:00 +13°C° 0 mm 2 m/s 761 mmHg 65%
02:00 +13°C° 0 mm 2 m/s 761 mmHg 66%
03:00 +12°C° 0 mm 2 m/s 761 mmHg 67%
04:00 +12°C° 0 mm 2 m/s 760 mmHg 68%
05:00 +12°C° 0 mm 2 m/s 760 mmHg 69%
06:00 +12°C° 0 mm 2 m/s 760 mmHg 70%
07:00 +10°C° 0 mm 2 m/s 760 mmHg 72%
08:00 +13°C° 0 mm 2 m/s 761 mmHg 67%
09:00 +14°C° 0 mm 2 m/s 761 mmHg 63%
10:00 +15°C° 0 mm 2 m/s 761 mmHg 58%
11:00 +16°C° 0 mm 3 m/s 760 mmHg 53%
12:00 +17°C° 0 mm 3 m/s 760 mmHg 48%
13:00 +18°C° 0 mm 4 m/s 760 mmHg 42%
14:00 +19°C° 0 mm 4 m/s 759 mmHg 41%
15:00 +19°C° 0 mm 4 m/s 759 mmHg 40%
16:00 +19°C° 0 mm 4 m/s 759 mmHg 39%
17:00 +18°C° 0 mm 4 m/s 759 mmHg 41%
18:00 +18°C° 0 mm 3 m/s 759 mmHg 43%
19:00 +17°C° 0 mm 3 m/s 759 mmHg 46%
20:00 +16°C° 0 mm 2 m/s 760 mmHg 49%
21:00 +16°C° 0 mm 2 m/s 760 mmHg 52%
22:00 +15°C° 0 mm 1 m/s 760 mmHg 55%
23:00 +15°C° 0 mm 1 m/s 760 mmHg 58%

28 Ianuarie, Joi

Timp Temperatura Precipitaţii Vânt Presiune Umiditate
00:00 +14°C° 0 mm 1 m/s 760 mmHg 62%
01:00 +14°C° 0 mm 1 m/s 760 mmHg 65%
02:00 +14°C° 0 mm 1 m/s 760 mmHg 68%
03:00 +13°C° 0 mm 1 m/s 760 mmHg 71%
04:00 +12°C° 0 mm 0 m/s 760 mmHg 74%
05:00 +13°C° 0 mm 1 m/s 760 mmHg 74%
06:00 +13°C° 0 mm 1 m/s 760 mmHg 74%
07:00 +13°C° 0 mm 1 m/s 761 mmHg 74%
08:00 +14°C° 0 mm 1 m/s 761 mmHg 68%
09:00 +16°C° 0 mm 1 m/s 761 mmHg 62%
10:00 +18°C° 0 mm 1 m/s 762 mmHg 55%
11:00 +19°C° 0 mm 1 m/s 761 mmHg 52%
12:00 +20°C° 0 mm 1 m/s 761 mmHg 49%
13:00 +21°C° 0 mm 1 m/s 761 mmHg 45%
14:00 +20°C° 0 mm 2 m/s 761 mmHg 44%
15:00 +21°C° 0 mm 2 m/s 761 mmHg 42%
16:00 +21°C° 0 mm 2 m/s 760 mmHg 40%
17:00 +20°C° 0 mm 2 m/s 761 mmHg 44%
18:00 +19°C° 0 mm 2 m/s 761 mmHg 47%
19:00 +18°C° 0 mm 2 m/s 761 mmHg 50%
Arată mai mult

Formular de consimțământ

Meteoprog și furnizorii noștri de servicii pot stoca și accesa date personale, precum cookies, identificatori de dispozitiv sau alte tehnologii similare pe dispozitivul dumneavoastră și procesa astfel de date pentru a personaliza conținutul și reclamele, dar și pentru a oferi caracteristici de social media și pentru a analiza traficul.

  • Stocarea și/sau accesarea informațiilor pe dispozitivul dumneavoastră

    Cookies, identificatori de dispozitiv sau alte informații pot fi stocate sau accesate pe dispozitiv în scopurile indicate mai sus.

  • Reclame și conținut personalizat, evaluarea reclamelor și a conținutului, informații despre audiențe și dezvoltarea produselor

    Reclamele și conținutul pot fi personalizate pe baza unui profil. Pot fi adăugate date suplimentare pentru a personaliza mai bine reclamele și conținutul. Performanța reclamelor și conținutului poate fi măsurată. Pot fi obținute informații despre utilizatorii care au văzut reclamele și conținutul. Aceste date pot fi utilizate pentru a dezvolta sau îmbunătăți experiența utilizatorilor, sistemele și software-ul.

Dând clic pe ‘Sunt de acord’, permiteți utilizarea cookie-urilor menționate, a identificatorilor de dispozitiv, balizelor web sau altor tehnologii similare. Setările pot fi modificate din browser-ul dispozitivului dumneavoastră.

În anumite scopuri, interesele legitime pot prima asupra consimțământului. Puteți citi mai multe informații în acest sens în Politica privind Confidențialitatea Datelor și Cookie.